This demonstration page uses our WeatherBlox Daily Observations layout. Learn more.

Left ArrowRight Arrow

39.08367, -84.50855

Hourly Observations for March 27, 2020

Temp ( °F °C ) Dew Point ( °F °C ) Humidity (%) Winds ( mph kmh ) Pressure ( in mb ) Visibility ( mi km ) Precip ( " mm )
12:53 am 00:53 Cloudy 62 16.7 54 12.2 75 75 N 9 15 29.78 1008 10 16 N/A
1:53 am 01:53 Cloudy 60 15.6 53 11.7 78 78 NNE 8 13 29.80 1009 10 16 N/A
2:53 am 02:53 Cloudy 58 14.4 53 11.7 84 84 ENE 7 11 29.81 1010 10 16 N/A
3:53 am 03:53 Cloudy 57 13.9 53 11.7 87 87 NE 5 7 29.80 1009 10 16 N/A
4:37 am 04:37 Cloudy 56 13.3 53 11.7 90 90 NE 3 6 29.82 1010 10 16 N/A
4:53 am 04:53 Cloudy 57 13.9 53 11.7 87 87 NE 7 11 29.82 1010 10 16 N/A
5:07 am 05:07 Cloudy 57 13.9 53 11.7 87 87 NE 5 7 29.83 1010 10 16 N/A
5:53 am 05:53 Cloudy 57 13.9 53 11.7 87 87 NE 5 7 29.83 1010 10 16 N/A
6:06 am 06:06 Cloudy 57 13.9 53 11.7 87 87 N N/A 29.84 1010 10 16 N/A
6:16 am 06:16 Cloudy 56 13.3 53 11.7 90 90 E 5 7 29.83 1010 10 16 N/A
6:53 am 06:53 Mostly Cloudy 56 13.3 53 11.7 90 90 NE 5 7 29.83 1010 10 16 N/A
7:53 am 07:53 Cloudy with Rain 54 12.2 53 11.7 97 97 N N/A 29.90 1013 4 6 0.04 1.02
8:53 am 08:53 Cloudy with Light Rain 55 12.8 54 12.2 96 96 ENE 3 6 29.87 1012 3 5 0.09 2.29
9:53 am 09:53 Cloudy with Light Rain 56 13.3 55 12.8 97 97 ENE 3 6 29.88 1012 4 6 0.01 0.25
10:44 am 10:44 Cloudy with Light Rain 58 14.4 55 12.8 90 90 ENE 8 13 29.89 1012 7 11 0.00 0.00
10:53 am 10:53 Mostly Cloudy with Light Rain 58 14.4 56 13.3 93 93 ENE 7 11 29.89 1012 8 13 0.00 0.00
11:16 am 11:16 Mostly Cloudy 59 15 56 13.3 90 90 ENE 5 7 29.88 1012 8 13 0.00 0.00
11:24 am 11:24 Mostly Cloudy 59 15 56 13.3 90 90 ENE 7 11 29.86 1011 9 14 0.00 0.00
11:37 am 11:37 Partly Cloudy 60 15.6 56 13.3 86 86 E 9 15 29.85 1011 10 16 0.00 0.00
11:53 am 11:53 Mostly Cloudy 61 16.1 57 13.9 87 87 E 7 11 29.85 1011 10 16 0.00 0.00
12:53 pm 12:53 Sunny 66 18.9 59 15 78 78 S 7 11 29.82 1010 10 16 N/A
1:53 pm 13:53 Mostly Cloudy 71 21.7 61 16.1 71 71 SSE 3 6 29.80 1009 10 16 N/A
2:53 pm 14:53 Cloudy 72 22.2 60 15.6 66 66 N 3 6 29.82 1010 10 16 N/A
3:53 pm 15:53 Mostly Cloudy 69 20.6 60 15.6 73 73 NE 10 17 29.82 1010 10 16 N/A
4:53 pm 16:53 Mostly Sunny 67 19.4 59 15 76 76 NE 12 19 29.80 1009 10 16 N/A
5:53 pm 17:53 Sunny 67 19.4 59 15 76 76 NNE 9 15 29.81 1010 10 16 N/A
6:53 pm 18:53 Cloudy 64 17.8 57 13.9 78 78 ENE 10 17 29.83 1010 10 16 N/A
7:53 pm 19:53 Cloudy 62 16.7 57 13.9 84 84 NE 12 19 29.85 1011 10 16 N/A
8:53 pm 20:53 Cloudy 61 16.1 56 13.3 84 84 NNE 6 9 29.86 1011 10 16 N/A
9:53 pm 21:53 Cloudy 60 15.6 56 13.3 86 86 NE 6 9 29.86 1011 10 16 N/A
10:53 pm 22:53 Mostly Cloudy 60 15.6 56 13.3 86 86 N 5 7 29.85 1011 10 16 N/A
11:53 pm 23:53 Cloudy 59 15 56 13.3 90 90 NE 5 7 29.85 1011 10 16 N/A

Powered by AerisWeather